Location: Cheching
(60.0667°N, 164.2167°W)
Time: 14:09:48
(UTC+00:00)

NOAA 19 - Pass Details

Date: 20 January 2021
Orbit: 840 x 862 km, 99.2° (Epoch: 01 March)

Event Time Altitude Azimuth Distance (km) Brightness Sun altitude
Rises 15:52:33 0° 25° (NNE) 3,434 8.8 -26.6°
Reaches altitude 10° 15:56:58 10° 59° (ENE) 2,485 8.4 -26.0°
Maximum altitude 15:58:41 11° 77° (ENE) 2,381 8.5 -25.8°
Drops below altitude 10° 16:00:25 10° 96° (E) 2,476 8.6 -25.6°
Sets 16:04:46 0° 129° (SE) 3,400 9.0 -25.1°
